Starlink 30376

operational
NORAD ID: 57782 Int'l Des: 2023-134 Owner: SPXS Country: US Constellation: starlink
LEOCIRCULAR

Starlink 30376について

説明を読み込み中...

リアルタイム位置

3D地球を読み込み中...

次回通過

高度履歴

Altitude vs Time

uPlot chart will show altitude changes over time

軌道要素

1 57782U 23134M 25259.71896920 .00000556 00000-0 56204-4 0 9994
2 57782 43.0041 62.6359 0001073 266.3737 93.6983 15.02536662113301
Epoch: Sep 16, 2025 • Age: 33 hours

現在のステータス

高度 569.3 km
速度 7.58 km/s
衛星直下点 -37.20°S, 33.48°W
打ち上げ日 Sep 4, 2023
運用期間 2 years
タイプ internet

技術仕様

分類 Payload
質量 730.00 kg
乾燥質量 700.00 kg
総質量 730.00 kg
長さ 0.30 m
直径 4.10 m
スパン 29.00 m
形状 Box + pan
製造者 SPXS
バスタイプ Starlink V2M
フェーズステータス In Orbit
所有者/国 SPXS/US

大規模コンステレーション

Loading constellations...